Location: Lancaster
(34.6980°N, 118.1360°W)
Time: 08:11:04
(UTC-08:00)

Vanguard 3 - Visible Passes

Search period start: 19 February 2018 00:00
Search period end: 01 March 2018 00:00
Orbit: 508 x 3264 km, 33.3° (Epoch: 19 February)

Date Brightness Start Highest point End Pass type
(mag) Time Alt. Az. Time Alt. Az. Time Alt. Az.
19 Feb 7.7 19:49:48 10° W 19:52:56 37° SW 19:52:56 37° SW visible
20 Feb 6.8 18:36:37 10° W 18:40:13 54° S 18:43:26 16° ESE visible
21 Feb 7.9 19:34:44 10° W 19:38:08 30° SSW 19:38:34 29° S visible
22 Feb 7.0 18:21:19 10° W 18:24:50 45° SSW 18:28:49 10° ESE visible
23 Feb 8.2 19:19:43 10° WSW 19:22:42 22° SSW 19:24:21 18° SSE visible
24 Feb 7.4 18:05:58 10° W 18:09:27 37° SSW 18:13:04 10° SE visible
25 Feb 8.6 19:04:49 10° WSW 19:07:14 16° SSW 19:09:53 10° SSE visible
27 Feb 9.0 18:50:16 10° SW 18:51:42 12° SSW 18:53:09 10° S visible
